Lid_Strength_Index
7 8 10 9 6 6 7 4 4 5 4 5 6 3 3 1 0 -0 -0 -0 -1 -1 -1 -1 -1 -1 -1 -1 -1 -1 -1 -1
9 9 7 7 5 5 5 4 4 4 7 4 2 3 1 0 0 0 -0 -0 -1 -1 -1 -1 -1 -1 -1 -1 -1 -1 -1 -1
10 9 6 6 5 5 5 5 5 4 6 6 2 1 1 0 0 0 0 -0 -1 -1 -1 -1 -1 -1 -1 -1 -1 -1 -1 -2
10 8 6 5 4 4 5 5 4 5 5 5 2 2 1 0 0 -0 0 -0 -1 -1 -1 -1 -1 -1 -1 -1 -1 -1 -1 -2
8 7 7 5 4 5 5 5 5 3 7 4 3 1 1 0 0 0 -0 -0 -0 -1 -1 -1 -1 -1 -1 -1 -1 -1 -2 -2
7 8 7 5 4 4 5 5 2 3 8 8 3 1 1 1 0 0 0 -0 -0 -1 -1 -1 -1 -1 -1 -1 -1 -2 -2 -2
7 7 6 4 5 4 3 4 3 3 6 4 3 1 1 2 1 1 1 0 -0 -0 -0 -1 -1 -1 -1 -1 -1 -1 -1 -2
5 5 5 5 5 4 4 4 4 4 3 5 2 2 2 3 2 2 1 1 0 -0 -0 -1 -1 -1 -1 -1 -1 -1 -1 -1
5 4 4 5 5 4 5 5 4 4 4 3 3 3 3 2 2 2 1 1 0 -0 -0 -0 -0 -0 -1 -1 -1 -1 -1 -1
5 4 4 5 4 5 4 4 3 3 3 3 3 3 3 2 2 2 1 1 0 -0 -0 -0 -0 -0 -0 -0 -1 -1 -1 -1
4 4 4 4 5 5 4 3 3 3 4 3 3 3 2 2 2 1 2 1 0 -0 -0 -1 -1 -0 -0 -0 -0 -1 -1 -1
5 4 4 5 5 4 4 3 3 3 3 3 3 2 2 2 2 2 1 1 0 0 -0 -0 -0 -1 -0 -1 -1 -1 -1 -1
5 4 5 4 6 6 4 3 4 3 3 3 3 2 2 1 0 1 1 1 0 0 -0 -0 -0 -1 -1 -1 -1 -1 -1 -2
5 5 5 5 8 5 4 4 4 3 3 3 3 2 2 2 1 0 1 1 0 0 0 0 -0 -0 -0 -1 -1 -1 -1 -1
7 5 5 6 7 5 4 4 4 4 3 3 3 2 2 2 2 1 0 1 1 -0 0 0 -0 -0 -0 -1 -0 -1 -1 -1
8 6 6 6 7 5 4 4 4 4 3 3 3 3 2 2 1 1 1 1 1 0 -0 0 0 -0 -0 0 -0 -1 -0 -1
7 5 6 7 7 6 4 4 4 4 4 3 3 3 2 2 2 2 1 -0 1 1 0 0 1 1 1 1 1 0 -0 -1
7 6 6 7 7 6 5 5 4 4 4 3 4 3 3 2 2 1 1 -0 0 0 -0 1 1 1 1 1 0 0 -0 -0
8 6 6 7 8 7 5 4 4 4 3 3 3 4 3 3 2 2 2 1 0 -0 0 0 0 0 1 0 1 1 1 1
7 8 11 7 12 8 6 6 5 5 4 4 4 3 3 3 2 2 2 1 1 0 -0 0 -1 1 1 2 3 1 1 0